Tracking 32954 objects as of 20-Jan-2026
HD Live streaming from Space Station
objects crossing your sky now

QIANFAN-100

Track QIANFAN-100 now!
10-day predictions
QIANFAN-100 is classified as:


NORAD ID: 66042
Int'l Code: 2025-233K
Perigee: 1,074.6 km
Apogee: 1,077.1 km
Inclination: 89.0 °
Period: 106.6 minutes
Semi major axis: 7446 km
RCS: Unknown
Launch date: October 17, 2025
Source: People's Republic of China (PRC)
Launch site: Taiyaun Space Center, China (TSC)
Your satellite tracking list
Your tracking list is empty




NASA's NSSDC Master Catalog

Two Line Element Set (TLE):
1 66042U 25233K   26019.51341877  .00000031  00000-0  28736-4 0  9991
2 66042  88.9888  58.1596 0001716 291.4026  68.6941 13.50967116 13166
Source of the keplerian elements: AFSPC